Crane Lake, MN

5:38 AM CDT on September 20, 2017 (GMT -0500)
Crane Lake

Weather History for KCDD - March, 2013

Change the Weather History Date:

Wednesday, March 20, 2013

  Actual Average Record
Temperature  
Mean Temperature 11 °F -  
Max Temperature 19 °F 34 °F 64 °F (2012)
Min Temperature 3 °F 12 °F -9 °F (2007)
Degree Days  
Heating Degree Days 54    
Moisture  
Dew Point 3 °F    
Average Humidity 70    
Maximum Humidity 92    
Minimum Humidity 49    
Precipitation  
Precipitation 0.00 in - - ()
Sea Level Pressure  
Sea Level Pressure 30.07 in    
Wind  
Wind Speed 6 mph (NW)    
Max Wind Speed 13 mph    
Max Gust Speed 21 mph    
Visibility 7 miles    
Events Snow    
Averages and records for this station are not official NWS values.
T = Trace of Precipitation, MM = Missing Value Source: NWS Daily Summary

Daily Weather History Graph

Daily Weather History Graph

Search for Another Location

Airport or City:

Trip Planner

Search our weather history database for the weather conditions in past years. The results will help you decide how hot, cold, wet, or windy it might be!

Date:

Astronomy

Mar. 20, 2013 Rise Set
Actual Time 7:12 AM CDT 7:23 PM CDT
Civil Twilight 6:41 AM CDT 7:54 PM CDT
Nautical Twilight 6:04 AM CDT 8:31 PM CDT
Astronomical Twilight 5:26 AM CDT 9:09 PM CDT
Moon 12:33 PM CDT 3:17 AM CDT
Length of Visible Light 13h 13m
Length of Day
12h 10m
First Quarter, 59% of the Moon is Illuminated
Mar 20
First Quarter
Mar 27
Full
Apr 2
Last Quarter
Apr 10
New
Apr 18
First Quarter

Hourly Weather History & Observations

Time (CDT) Temp. Windchill Dew Point Humidity Pressure Visibility Wind Dir Wind Speed Gust Speed Precip Events Conditions
12:28 AM 8.6 °F -1.3 °F 1.4 °F 73% 30.01 in 2.5 mi WNW 5.8 mph - N/A Snow Light Snow
12:48 AM 8.6 °F 0.1 °F 1.4 °F 73% 30.01 in 2.5 mi WNW 4.6 mph - N/A Snow Light Snow
1:08 AM 6.8 °F -3.5 °F 1.4 °F 79% 30.01 in 3.0 mi WNW 5.8 mph - N/A Snow Light Snow
1:28 AM 6.8 °F -5.9 °F 1.4 °F 79% 30.01 in 7.0 mi WNW 8.1 mph - N/A   Overcast
1:48 AM 6.8 °F -3.5 °F 1.4 °F 79% 30.01 in 3.0 mi WNW 5.8 mph - N/A Snow Light Snow
2:08 AM 6.8 °F -3.5 °F 1.4 °F 79% 30.02 in 2.5 mi West 5.8 mph - N/A Snow Light Snow
2:28 AM 6.8 °F -0.1 °F 1.4 °F 79% 30.01 in 2.0 mi West 3.5 mph - N/A Snow Light Snow
2:48 AM 6.8 °F -0.1 °F 1.4 °F 79% 30.02 in 2.5 mi WNW 3.5 mph - N/A Snow Light Snow
3:08 AM 6.8 °F -4.8 °F 1.4 °F 79% 30.02 in 2.5 mi WNW 6.9 mph - N/A Snow Light Snow
3:28 AM 6.8 °F -3.5 °F 1.4 °F 79% 30.02 in 2.5 mi WNW 5.8 mph - N/A Snow Light Snow
3:48 AM 6.8 °F -0.1 °F 1.4 °F 79% 30.02 in 1.8 mi NW 3.5 mph - N/A Snow Light Snow
4:08 AM 6.8 °F -2.0 °F 1.4 °F 79% 30.02 in 1.8 mi WNW 4.6 mph - N/A Snow Light Snow
4:28 AM 6.8 °F -3.5 °F 1.4 °F 79% 30.02 in 1.8 mi WNW 5.8 mph - N/A Snow Light Snow
4:48 AM 5.0 °F -5.6 °F 1.4 °F 85% 30.03 in 2.0 mi NW 5.8 mph - N/A Snow Light Snow
5:08 AM 5.0 °F -2.1 °F 1.4 °F 85% 30.03 in 1.5 mi NW 3.5 mph - N/A Snow Light Snow
5:28 AM 5.0 °F -6.9 °F 1.4 °F 85% 30.04 in 1.8 mi NW 6.9 mph - N/A Snow Light Snow
5:48 AM 5.0 °F -6.9 °F 1.4 °F 85% 30.04 in 5.0 mi NW 6.9 mph - N/A Snow Light Snow
6:08 AM 3.2 °F -7.8 °F -0.4 °F 85% 30.05 in 5.0 mi WNW 5.8 mph - N/A Snow Light Snow
6:28 AM 3.2 °F -6.2 °F -0.4 °F 85% 30.05 in 10.0 mi NW 4.6 mph - N/A   Overcast
6:48 AM 3.2 °F -6.2 °F -0.4 °F 85% 30.06 in 10.0 mi NW 4.6 mph - N/A   Overcast
7:08 AM 3.2 °F -4.2 °F -0.4 °F 85% 30.06 in 10.0 mi NNW 3.5 mph - N/A   Overcast
7:28 AM 3.2 °F -6.2 °F -0.4 °F 85% 30.07 in 5.0 mi NW 4.6 mph - N/A Snow Light Snow
7:48 AM 3.2 °F -4.2 °F -0.4 °F 85% 30.07 in 4.0 mi WNW 3.5 mph - N/A Snow Light Snow
8:08 AM 3.2 °F -4.2 °F 1.4 °F 92% 30.07 in 2.0 mi NNW 3.5 mph - N/A Snow Light Snow
8:28 AM 5.0 °F -2.1 °F 1.4 °F 85% 30.07 in 7.0 mi WNW 3.5 mph - N/A Snow Light Snow
8:48 AM 6.8 °F -5.9 °F 1.4 °F 79% 30.07 in 5.0 mi NW 8.1 mph - N/A   Mostly Cloudy
9:08 AM 8.6 °F -1.3 °F 3.2 °F 79% 30.07 in 2.5 mi NW 5.8 mph - N/A Snow Light Snow
9:28 AM 8.6 °F -1.3 °F 3.2 °F 79% 30.07 in 2.5 mi NW 5.8 mph - N/A Snow Light Snow
10:08 AM 10.4 °F -3.3 °F 3.2 °F 73% 30.07 in 7.0 mi NW 10.4 mph 17.3 mph N/A   Mostly Cloudy
10:28 AM 10.4 °F -4.8 °F 3.2 °F 73% 30.07 in 7.0 mi NW 12.7 mph 19.6 mph N/A   Mostly Cloudy
10:48 AM 10.4 °F -3.3 °F 1.4 °F 67% 30.08 in 7.0 mi NNW 10.4 mph 20.7 mph N/A   Overcast
11:08 AM 12.2 °F -1.0 °F 3.2 °F 67% 30.08 in 7.0 mi NNW 10.4 mph - N/A   Overcast
11:28 AM 12.2 °F -1.8 °F 1.4 °F 62% 30.08 in 10.0 mi NNW 11.5 mph 18.4 mph N/A   Overcast
11:48 AM 12.2 °F -1.0 °F 1.4 °F 62% 30.08 in 7.0 mi NW 10.4 mph - N/A   Overcast
12:11 PM 12.2 °F -0.2 °F 1.4 °F 62% 30.08 in 7.0 mi NNW 9.2 mph 16.1 mph N/A   Overcast
12:28 PM 14.0 °F 2.0 °F 3.2 °F 62% 30.08 in 7.0 mi NW 9.2 mph 16.1 mph N/A   Overcast
12:48 PM 15.8 °F 2.7 °F 3.2 °F 58% 30.08 in 5.0 mi NNW 11.5 mph 17.3 mph N/A   Haze
1:08 PM 15.8 °F 3.4 °F 3.2 °F 58% 30.08 in 10.0 mi NNW 10.4 mph 16.1 mph N/A   Overcast
1:28 PM 15.8 °F 4.2 °F 3.2 °F 58% 30.08 in 7.0 mi NW 9.2 mph - N/A   Overcast
1:48 PM 15.8 °F 2.7 °F 3.2 °F 58% 30.08 in 10.0 mi NW 11.5 mph 17.3 mph N/A   Overcast
2:08 PM 17.6 °F 5.7 °F 5.0 °F 58% 30.07 in 10.0 mi NNW 10.4 mph 16.1 mph N/A   Overcast
2:28 PM 17.6 °F 7.3 °F 3.2 °F 53% 30.07 in 10.0 mi NW 8.1 mph - N/A   Overcast
2:48 PM 15.8 °F 4.2 °F 3.2 °F 58% 30.07 in 10.0 mi NW 9.2 mph - N/A   Overcast
3:08 PM 15.8 °F 5.1 °F 3.2 °F 58% 30.07 in 10.0 mi NW 8.1 mph - N/A   Overcast
3:28 PM 17.6 °F 6.4 °F 5.0 °F 58% 30.07 in 10.0 mi NNW 9.2 mph - N/A   Overcast
3:48 PM 19.4 °F 10.4 °F 3.2 °F 49% 30.07 in 10.0 mi NNW 6.9 mph - N/A   Overcast
4:08 PM 17.6 °F 8.2 °F 3.2 °F 53% 30.08 in 10.0 mi NNW 6.9 mph - N/A   Overcast
4:28 PM 17.6 °F 7.3 °F 3.2 °F 53% 30.08 in 10.0 mi NNW 8.1 mph - N/A   Overcast
4:48 PM 17.6 °F 7.3 °F 3.2 °F 53% 30.09 in 10.0 mi NNW 8.1 mph - N/A   Overcast
5:08 PM 17.6 °F 6.4 °F 3.2 °F 53% 30.09 in 10.0 mi NNW 9.2 mph 17.3 mph N/A   Overcast
5:28 PM 15.8 °F 7.2 °F 3.2 °F 58% 30.10 in 10.0 mi North 5.8 mph - N/A   Overcast
5:48 PM 15.8 °F 5.1 °F 3.2 °F 58% 30.10 in 10.0 mi NNW 8.1 mph - N/A   Overcast
6:08 PM 15.8 °F 5.1 °F 3.2 °F 58% 30.11 in 10.0 mi NNW 8.1 mph - N/A   Overcast
6:28 PM 15.8 °F 5.1 °F 3.2 °F 58% 30.11 in 10.0 mi NNW 8.1 mph - N/A   Overcast
6:48 PM 15.8 °F 5.1 °F 3.2 °F 58% 30.11 in 10.0 mi NNW 8.1 mph - N/A   Overcast
7:08 PM 14.0 °F 5.1 °F 5.0 °F 67% 30.11 in 10.0 mi NNW 5.8 mph - N/A   Overcast
7:28 PM 14.0 °F - 3.2 °F 62% 30.10 in 10.0 mi Calm Calm - N/A   Overcast
7:48 PM 12.2 °F 6.1 °F 3.2 °F 67% 30.10 in 10.0 mi NNW 3.5 mph - N/A   Overcast
8:08 PM 12.2 °F 6.1 °F 5.0 °F 73% 30.10 in 10.0 mi NNW 3.5 mph - N/A   Overcast
8:28 PM 12.2 °F - 5.0 °F 73% 30.10 in 10.0 mi Calm Calm - N/A   Overcast
8:48 PM 12.2 °F 6.1 °F 5.0 °F 73% 30.10 in 10.0 mi NNW 3.5 mph - N/A   Overcast
9:08 PM 12.2 °F - 3.2 °F 67% 30.11 in 10.0 mi Calm Calm - N/A   Overcast
9:28 PM 12.2 °F - 3.2 °F 67% 30.11 in 10.0 mi Calm Calm - N/A   Overcast
9:48 PM 12.2 °F - 3.2 °F 67% 30.11 in 10.0 mi Calm Calm - N/A   Overcast
10:08 PM 12.2 °F - 3.2 °F 67% 30.11 in 10.0 mi Calm Calm - N/A   Overcast
10:28 PM 10.4 °F - 3.2 °F 73% 30.11 in 10.0 mi Calm Calm - N/A   Overcast
10:48 PM 12.2 °F - 5.0 °F 73% 30.11 in 10.0 mi Calm Calm - N/A   Overcast
11:08 PM 12.2 °F - 5.0 °F 73% 30.11 in 10.0 mi Calm Calm - N/A   Overcast
11:28 PM 12.2 °F - 5.0 °F 73% 30.11 in 10.0 mi Calm Calm - N/A   Overcast
11:48 PM 10.4 °F - 3.2 °F 73% 30.11 in 10.0 mi Calm Calm - N/A   Overcast